This is the latest recevied weather packets stored in our database for station/object SP2JGY-2. If no packets are shown the sender has not sent any weather packets the latest 10 day(s).
| Time | Temp. | Humidity | Pressure | Rain* | Wind** | Luminosity | Snow |
|---|---|---|---|---|---|---|---|
| 1777731893 | 36.67° C | 8% | 1018.5 hPa | - | - | - | - |
| 1777730993 | 31.67° C | 11% | 1018.8 hPa | - | - | - | - |
| 1777730093 | 30.56° C | 11% | 1019 hPa | - | - | - | - |
| 1777729193 | 28.89° C | 12% | 1019.2 hPa | - | - | - | - |
| 1777728292 | 28.89° C | 13% | 1019.2 hPa | - | - | - | - |
| 1777727392 | 27.78° C | 13% | 1019.5 hPa | - | - | - | - |
| 1777726492 | 26.67° C | 15% | 1019.8 hPa | - | - | - | - |
| 1777725592 | 25.56° C | 14% | 1020.1 hPa | - | - | - | - |
| 1777724692 | 25° C | 15% | 1020.3 hPa | - | - | - | - |
| 1777723791 | 25.56° C | 16% | 1020.6 hPa | - | - | - | - |
| 1777722891 | 25.56° C | 16% | 1020.7 hPa | - | - | - | - |
| 1777721991 | 25° C | 17% | 1020.9 hPa | - | - | - | - |
| 1777721091 | 25° C | 17% | 1021.1 hPa | - | - | - | - |
| 1777720191 | 24.44° C | 18% | 1021.4 hPa | - | - | - | - |
| 1777719291 | 24.44° C | 18% | 1021.5 hPa | - | - | - | - |
| 1777718390 | 24.44° C | 18% | 1021.6 hPa | - | - | - | - |
| 1777717490 | 24.44° C | 19% | 1021.9 hPa | - | - | - | - |
| 1777716590 | 23.89° C | 19% | 1022.1 hPa | - | - | - | - |
| 1777715692 | 23.33° C | 20% | 1022.3 hPa | - | - | - | - |
| 1777714790 | 23.33° C | 21% | 1022.3 hPa | - | - | - | - |
| 1777713890 | 22.22° C | 23% | 1022.6 hPa | - | - | - | - |
| 1777712989 | 22.22° C | 22% | 1022.8 hPa | - | - | - | - |
| 1777712089 | 21.67° C | 25% | 1023 hPa | - | - | - | - |
| 1777711189 | 20.56° C | 25% | 1023.2 hPa | - | - | - | - |
| 1777710289 | 21.11° C | 27% | 1023.3 hPa | - | - | - | - |
* Rain since midnight (hover to see other rain measurements)
** Current wind speed in m/s (hover to see current wind gust speed)